Location: Ethel Rock
(53.4667°N, 4.5667°W)
Time: 05:18:43
(UTC+00:00)

Meteor 1-16 Rocket - Pass Details

Date: 24 October 2020
Orbit: 790 x 908 km, 81.2° (Epoch: 25 November)

Event Time Altitude Azimuth Distance (km) Brightness Sun altitude
Rises 04:41:03 0° 344° (NNW) 3,326 7.2 -21.6°
Reaches altitude 10° 04:43:28 10° 342° (NNW) 2,381 6.5 -21.3°
Maximum altitude 04:48:46 67° 261° (W) 858 3.9 -20.5°
Drops below altitude 10° 04:54:00 10° 180° (S) 2,352 6.4 -19.7°
Sets 04:56:23 0° 178° (S) 3,282 7.2 -19.4°
